{"data":{"norad_id":47266,"intl_designator":"2020-100J","name":"ONEWEB-0120","alt_names":[],"object_type":"PAYLOAD","status":"ACTIVE","operator":null,"country":"UK","launch_date":"2020-12-18","launch_site_code":"VOSTO","launch_vehicle":null,"mission":null,"orbit_class":"UNKNOWN","rcs_meters":null,"size_class":null,"mass_kg":null,"dimensions":null,"purposes":["comms"],"wikipedia_slug":null,"has_3d_model":false,"image_url":null,"decayed_at":null,"tle_current":{"epoch":"2026-09-20T03:27:42.714432Z","epoch_age_seconds":45231,"freshness":"FRESH","line1":"1 47266U 20100J   26263.14424438 -.00000297  00000+0 -86073-3 0  9993","line2":"2 47266  87.8978 331.8142 0001640  99.0936 261.0378 13.12443329277187","mean_motion":13.12443329,"eccentricity":0.000164,"inclination_deg":87.8978,"raan_deg":331.8142,"arg_perigee_deg":99.0936,"mean_anomaly_deg":261.0378,"bstar":-0.00086073,"rev_number":27718,"period_min":109.71902315182,"perigee_km":1212.4769574291,"apogee_km":1214.9670871884,"semimajor_km":7591.8590223087,"source":"CELESTRAK","updated_at":"2026-09-20T09:00:44.577438Z"}}}